TimeEST,TemperatureF,Dew PointF,Humidity,Sea Level PressureIn,VisibilityMPH,Wind Direction,Wind SpeedMPH,Gust SpeedMPH,PrecipitationIn,Events,Conditions,WindDirDegrees,DateUTC
12:01 AM,28.4,17.6,64,30.20,10.0,NW,6.9,-,N/A,,Mostly Cloudy,310,2014-02-06 05:01:00
12:21 AM,28.4,19.4,69,30.21,10.0,NNW,6.9,-,N/A,,Mostly Cloudy,340,2014-02-06 05:21:00
12:41 AM,28.4,17.6,64,30.23,10.0,NNW,10.4,17.3,N/A,,Mostly Cloudy,340,2014-02-06 05:41:00
1:01 AM,28.4,17.6,64,30.23,10.0,NNW,8.1,-,N/A,,Mostly Cloudy,330,2014-02-06 06:01:00
1:21 AM,28.4,17.6,64,30.25,10.0,NW,4.6,-,N/A,,Mostly Cloudy,310,2014-02-06 06:21:00
1:41 AM,28.4,15.8,59,30.26,10.0,WNW,8.1,-,N/A,,Overcast,300,2014-02-06 06:41:00
2:01 AM,28.4,15.8,59,30.27,10.0,WNW,6.9,-,N/A,,Overcast,300,2014-02-06 07:01:00
2:21 AM,28.4,15.8,59,30.28,10.0,WNW,6.9,-,N/A,,Mostly Cloudy,290,2014-02-06 07:21:00
2:41 AM,28.4,15.8,59,30.28,10.0,NNW,8.1,-,N/A,,Mostly Cloudy,340,2014-02-06 07:41:00
3:01 AM,28.4,14.0,55,30.28,10.0,NW,6.9,-,N/A,,Mostly Cloudy,310,2014-02-06 08:01:00
3:21 AM,28.4,14.0,55,30.28,10.0,WNW,4.6,-,N/A,,Overcast,290,2014-02-06 08:21:00
3:41 AM,28.4,14.0,55,30.28,10.0,NW,9.2,-,N/A,,Overcast,320,2014-02-06 08:41:00
4:01 AM,28.4,15.8,59,30.30,10.0,NNW,6.9,-,N/A,,Mostly Cloudy,330,2014-02-06 09:01:00
4:21 AM,28.4,15.8,59,30.30,10.0,West,5.8,-,N/A,,Mostly Cloudy,280,2014-02-06 09:21:00
4:41 AM,28.4,15.8,59,30.30,10.0,NW,4.6,-,N/A,,Overcast,320,2014-02-06 09:41:00
5:01 AM,28.4,15.8,59,30.30,10.0,NNW,3.5,-,N/A,,Mostly Cloudy,340,2014-02-06 10:01:00
5:21 AM,26.6,15.8,64,30.30,10.0,NNW,4.6,-,N/A,,Mostly Cloudy,340,2014-02-06 10:21:00
5:41 AM,26.6,15.8,64,30.32,10.0,NW,3.5,-,N/A,,Scattered Clouds,320,2014-02-06 10:41:00
6:01 AM,26.6,14.0,59,30.31,10.0,WNW,5.8,-,N/A,,Mostly Cloudy,300,2014-02-06 11:01:00
6:21 AM,26.6,14.0,59,30.31,10.0,Calm,Calm,-,N/A,,Mostly Cloudy,0,2014-02-06 11:21:00
6:41 AM,26.6,14.0,59,30.32,10.0,Calm,Calm,-,N/A,,Mostly Cloudy,0,2014-02-06 11:41:00
7:02 AM,26.6,14.0,59,30.32,10.0,Calm,Calm,-,N/A,,Overcast,0,2014-02-06 12:02:00
7:22 AM,26.6,14.0,59,30.33,10.0,Calm,Calm,-,N/A,,Overcast,0,2014-02-06 12:22:00
7:42 AM,26.6,14.0,59,30.33,10.0,North,3.5,-,N/A,,Mostly Cloudy,360,2014-02-06 12:42:00
8:02 AM,26.6,14.0,59,30.34,10.0,Calm,Calm,-,N/A,,Mostly Cloudy,0,2014-02-06 13:02:00
8:22 AM,26.6,14.0,59,30.35,10.0,West,11.5,-,N/A,,Mostly Cloudy,270,2014-02-06 13:22:00
8:42 AM,26.6,14.0,59,30.36,10.0,WNW,5.8,-,N/A,,Scattered Clouds,300,2014-02-06 13:42:00
9:02 AM,28.4,14.0,55,30.37,10.0,West,11.5,-,N/A,,Scattered Clouds,270,2014-02-06 14:02:00
9:22 AM,28.4,14.0,55,30.37,10.0,West,8.1,-,N/A,,Scattered Clouds,270,2014-02-06 14:22:00
9:42 AM,28.4,14.0,55,30.37,10.0,WNW,8.1,-,N/A,,Clear,300,2014-02-06 14:42:00
10:02 AM,28.4,14.0,55,30.37,10.0,West,8.1,-,N/A,,Clear,280,2014-02-06 15:02:00
10:22 AM,28.4,14.0,55,30.38,10.0,WNW,5.8,-,N/A,,Clear,290,2014-02-06 15:22:00
10:42 AM,30.2,14.0,51,30.37,10.0,West,4.6,-,N/A,,Scattered Clouds,280,2014-02-06 15:42:00
11:02 AM,30.2,14.0,51,30.38,10.0,Calm,Calm,-,N/A,,Mostly Cloudy,0,2014-02-06 16:02:00
11:22 AM,30.2,14.0,51,30.37,10.0,West,6.9,-,N/A,,Scattered Clouds,280,2014-02-06 16:22:00
11:42 AM,30.2,14.0,51,30.37,10.0,WNW,8.1,-,N/A,,Clear,290,2014-02-06 16:42:00
12:02 PM,30.2,14.0,51,30.37,10.0,West,10.4,17.3,N/A,,Clear,280,2014-02-06 17:02:00
12:22 PM,30.2,14.0,51,30.35,10.0,West,9.2,-,N/A,,Scattered Clouds,280,2014-02-06 17:22:00
12:42 PM,30.2,14.0,51,30.34,10.0,NW,6.9,-,N/A,,Clear,310,2014-02-06 17:42:00
1:02 PM,32.0,14.0,48,30.33,10.0,WNW,8.1,-,N/A,,Clear,300,2014-02-06 18:02:00
1:22 PM,32.0,14.0,48,30.32,10.0,NW,6.9,-,N/A,,Clear,320,2014-02-06 18:22:00
1:42 PM,33.8,14.0,44,30.31,10.0,West,6.9,-,N/A,,Clear,260,2014-02-06 18:42:00
2:02 PM,33.8,14.0,44,30.30,10.0,NNW,5.8,-,N/A,,Clear,340,2014-02-06 19:02:00
2:22 PM,33.8,12.2,41,30.30,10.0,WNW,5.8,-,N/A,,Clear,300,2014-02-06 19:22:00
2:42 PM,33.8,12.2,41,30.30,10.0,NW,6.9,-,N/A,,Clear,320,2014-02-06 19:42:00
3:02 PM,33.8,12.2,41,30.29,10.0,NNW,5.8,-,N/A,,Clear,340,2014-02-06 20:02:00
3:22 PM,33.8,12.2,41,30.29,10.0,WSW,4.6,-,N/A,,Clear,240,2014-02-06 20:22:00
3:42 PM,33.8,12.2,41,30.29,10.0,WNW,3.5,-,N/A,,Clear,290,2014-02-06 20:42:00
4:03 PM,33.8,10.4,38,30.29,10.0,West,4.6,-,N/A,,Clear,280,2014-02-06 21:03:00
4:23 PM,33.8,12.2,41,30.29,10.0,SW,5.8,-,N/A,,Clear,220,2014-02-06 21:23:00
4:43 PM,33.8,12.2,41,30.30,10.0,WSW,5.8,-,N/A,,Clear,250,2014-02-06 21:43:00
5:03 PM,33.8,12.2,41,30.30,10.0,West,4.6,-,N/A,,Clear,260,2014-02-06 22:03:00
5:23 PM,32.0,12.2,44,30.30,10.0,WNW,4.6,-,N/A,,Clear,300,2014-02-06 22:23:00
5:43 PM,32.0,14.0,48,30.30,10.0,WNW,8.1,-,N/A,,Clear,290,2014-02-06 22:43:00
6:03 PM,32.0,14.0,48,30.30,10.0,West,11.5,17.3,N/A,,Clear,270,2014-02-06 23:03:00
6:23 PM,32.0,14.0,48,30.30,10.0,WNW,6.9,16.1,N/A,,Scattered Clouds,290,2014-02-06 23:23:00
6:42 PM,32.0,14.0,48,30.30,10.0,West,6.9,-,N/A,,Scattered Clouds,270,2014-02-06 23:42:00
7:03 PM,30.2,14.0,51,30.31,10.0,Calm,Calm,-,N/A,,Scattered Clouds,0,2014-02-07 00:03:00
7:23 PM,30.2,14.0,51,30.31,10.0,WSW,3.5,-,N/A,,Scattered Clouds,250,2014-02-07 00:23:00
7:43 PM,30.2,14.0,51,30.31,10.0,West,6.9,-,N/A,,Scattered Clouds,270,2014-02-07 00:43:00
8:03 PM,30.2,15.8,55,30.31,10.0,South,3.5,-,N/A,,Mostly Cloudy,180,2014-02-07 01:03:00
8:23 PM,30.2,15.8,55,30.32,10.0,SSW,3.5,-,N/A,,Overcast,200,2014-02-07 01:23:00
8:43 PM,30.2,17.6,60,30.32,10.0,Calm,Calm,-,N/A,,Overcast,0,2014-02-07 01:43:00
9:03 PM,30.2,15.8,55,30.32,10.0,Calm,Calm,-,N/A,,Overcast,0,2014-02-07 02:03:00
9:23 PM,30.2,17.6,60,30.32,10.0,West,11.5,17.3,N/A,,Mostly Cloudy,280,2014-02-07 02:23:00
9:43 PM,30.2,17.6,60,30.33,10.0,SSW,5.8,-,N/A,,Mostly Cloudy,210,2014-02-07 02:43:00
10:03 PM,30.2,17.6,60,30.34,10.0,Calm,Calm,-,N/A,,Overcast,0,2014-02-07 03:03:00
10:43 PM,30.2,17.6,60,30.35,10.0,WSW,3.5,-,N/A,,Overcast,250,2014-02-07 03:43:00